Weather History for Hoonah, AK

Change the Weather History Date:

Sunday, September 8, 2013

  Actual Average Record
Temperature  
Mean Temperature 55 °F -  
Max Temperature 62 °F 54 °F 63 °F (2005)
Min Temperature 47 °F 44 °F 33 °F (1996)
Degree Days  
Heating Degree Days 10    
Growing Degree Days 5 (Base 50)    
Moisture  
Dew Point 51 °F    
Average Humidity 80    
Maximum Humidity 100    
Minimum Humidity 65    
Precipitation  
Precipitation 0.04 in - - ()
Sea Level Pressure  
Sea Level Pressure 29.98 in    
Wind  
Wind Speed 6 mph (West)    
Max Wind Speed 12 mph    
Max Gust Speed 16 mph    
Visibility 10 miles    
Events Rain    
Averages and records for this station are not official NWS values.
T = Trace of Precipitation, MM = Missing Value Source: NWS Daily Summary

Daily Weather History Graph

Daily Weather History Graph

Search for Another Location

Airport:

Trip Planner

Search our weather history database for the weather conditions in past years. The results will help you decide how hot, cold, wet, or windy it might be!

Date:

Astronomy

Sep. 08, 2013 Rise Set
Actual Time 6:17 AM AKDT 7:39 PM AKDT
Civil Twilight 5:36 AM AKDT 8:20 PM AKDT
Nautical Twilight 4:45 AM AKDT 9:10 PM AKDT
Astronomical Twilight 3:47 AM AKDT 10:08 PM AKDT
Moon 10:39 AM AKDT (9/8) 8:19 PM AKDT (9/8)
Length of Visible Light 14h 43m
Length of Day
13h 22m
Waxing Crescent, 12% of the Moon is Illuminated
Sep 8
Waxing Crescent
Sep 12
First Quarter
Sep 19
Full
Sep 26
Last Quarter
Oct 4
New

Hourly Weather History & Observations

Time (AKDT) Temp. Dew Point Humidity Pressure Visibility Wind Dir Wind Speed Gust Speed Precip Events Conditions
12:56 AM 60.8 °F 59.0 °F 94% 29.64 in 7.0 mi East 6.9 mph - N/A Rain Light Rain
1:56 AM 61.0 °F 59.9 °F 96% 29.69 in 4.0 mi Calm Calm - 0.03 in Rain Light Rain
2:56 AM 61.0 °F 54.9 °F 80% 29.73 in 10.0 mi WSW 9.2 mph - 0.01 in   Scattered Clouds
3:56 AM 57.2 °F 53.6 °F 88% 29.78 in 10.0 mi Variable 5.8 mph - N/A   Scattered Clouds
4:56 AM 57.9 °F 52.0 °F 81% 29.83 in 10.0 mi Variable 3.5 mph - N/A   Mostly Cloudy
5:56 AM 54.9 °F 52.9 °F 93% 29.85 in 10.0 mi NNE 3.5 mph - N/A   Overcast
6:56 AM 55.4 °F 51.8 °F 88% 29.88 in 10.0 mi North 4.6 mph - N/A   Overcast
7:56 AM 56.8 °F 50.9 °F 80% 29.92 in 10.0 mi Variable 3.5 mph - N/A   Partly Cloudy
8:56 AM 59.0 °F 50.0 °F 72% 29.96 in 10.0 mi Variable 3.5 mph - N/A   Partly Cloudy
9:56 AM 59.0 °F 51.8 °F 77% 29.99 in 10.0 mi West 5.8 mph - N/A   Mostly Cloudy
10:56 AM 59.9 °F 50.9 °F 72% 30.02 in 10.0 mi West 10.4 mph - N/A   Overcast
11:56 AM 59.9 °F 50.0 °F 70% 30.04 in 10.0 mi WSW 9.2 mph - N/A   Partly Cloudy
12:56 PM 60.8 °F 51.8 °F 72% 30.05 in 10.0 mi WSW 8.1 mph - N/A   Overcast
1:56 PM 61.9 °F 52.0 °F 70% 30.07 in 10.0 mi WSW 9.2 mph - N/A   Scattered Clouds
2:56 PM 61.9 °F 50.9 °F 67% 30.07 in 10.0 mi WSW 10.4 mph - N/A   Mostly Cloudy
3:56 PM 62.6 °F 51.8 °F 68% 30.08 in 10.0 mi West 11.5 mph 16.1 mph N/A   Mostly Cloudy
4:56 PM 61.9 °F 50.0 °F 65% 30.09 in 10.0 mi West 9.2 mph - N/A   Mostly Cloudy
5:56 PM 61.9 °F 50.0 °F 65% 30.10 in 10.0 mi West 9.2 mph 16.1 mph N/A   Mostly Cloudy
6:56 PM 59.0 °F 47.8 °F 66% 30.11 in 10.0 mi WSW 9.2 mph - N/A   Partly Cloudy
7:56 PM 56.8 °F 47.8 °F 72% 30.12 in 10.0 mi West 5.8 mph - N/A   Clear
8:56 PM 54.0 °F 48.9 °F 83% 30.14 in 10.0 mi Calm Calm - N/A   Clear
9:56 PM 48.9 °F 47.8 °F 96% 30.15 in 10.0 mi East 4.6 mph - N/A   Clear
10:56 PM 48.9 °F 47.8 °F 96% 30.16 in 10.0 mi Calm Calm - N/A   Overcast
11:56 PM 47.8 °F 47.8 °F 100% 30.16 in 9.0 mi Calm Calm - N/A   Mostly Cloudy